CW3643 Lisbon PT current weather conditions

sailwx.info

Wind from 033 at 2 knots gusting 6

Air temperature 11.7° C
Dewpoint 9.1° C

Last reported at 2018-Jan-20 22:00 UTC.
Time now 2018-Jan-20 23:09 UTC

Location: N 38°47' W 009°07'.
View on Google Maps.

See reports from other nearby stations

  
Tides and Currents Weather Stations Pressure Air Temp Water Temp Dewpoint Dewpoint Depression Visibility Wind Speed Wind Dir Waves Ship Positions
date/time (UTC)wind fromknots sea level pressurealtimeterstation pressurevisibilityair tempwater tempwave heightnotes
2018-Jan-20 22:00 033 2 gusting 6 11.7
2018-Jan-20 21:50 318 3 gusting 6 11.7
2018-Jan-20 21:40 006 2 gusting 5 11.7
2018-Jan-20 21:30 058 2 gusting 4 11.7
2018-Jan-20 21:20 003 2 gusting 6 11.7
2018-Jan-20 21:10 020 3 gusting 6 11.7
2018-Jan-20 21:00 012 2 gusting 6 11.7
2018-Jan-20 20:50 009 2 gusting 6 11.7
2018-Jan-20 20:40 338 4 gusting 7 11.7
2018-Jan-20 20:30 333 5 gusting 7 11.7
2018-Jan-20 20:20 024 1 gusting 8 11.7
2018-Jan-20 20:10 024 3 gusting 6 11.7
2018-Jan-20 20:00 041 3 gusting 7 11.7
2018-Jan-20 19:50 079 3 gusting 6 11.7
2018-Jan-20 19:40 360 4 gusting 9 11.7
2018-Jan-20 19:30 345 2 gusting 10 11.7
2018-Jan-20 19:20 305 4 gusting 8 11.7
2018-Jan-20 19:10 031 3 gusting 10 11.7
2018-Jan-20 19:00 355 4 gusting 8 11.7
2018-Jan-20 18:50 352 3 gusting 6 12.2
2018-Jan-20 18:30 329 6 gusting 8 12.2
2018-Jan-20 18:20 330 6 gusting 11 12.2
2018-Jan-20 18:10 324 5 gusting 9 12.8
2018-Jan-20 18:00 351 6 gusting 11 12.8
2018-Jan-20 17:50 331 3 gusting 6 13.3
2018-Jan-20 17:40 343 5 gusting 8 13.3
2018-Jan-20 17:30 352 6 gusting 12 13.3
2018-Jan-20 17:20 353 6 gusting 10 13.9
2018-Jan-20 17:10 324 5 gusting 8 13.9
2018-Jan-20 17:00 322 4 gusting 9 14.4
2018-Jan-20 16:50 357 6 gusting 11 15.0
2018-Jan-20 16:40 338 6 gusting 9 15.6
2018-Jan-20 16:30 343 4 gusting 8 16.1
2018-Jan-20 16:20 328 2 gusting 5 16.1
2018-Jan-20 16:10 295 2 gusting 5 16.1
2018-Jan-20 16:00 301 0 gusting 3 16.1
2018-Jan-20 15:50 330 0 gusting 4 16.7
2018-Jan-20 15:40 344 16.7
2018-Jan-20 15:30 352 1 gusting 6 16.7
2018-Jan-20 15:20 347 3 gusting 8 16.1
2018-Jan-20 15:10 008 3 gusting 7 16.1
2018-Jan-20 15:00 332 2 gusting 5 16.1
2018-Jan-20 14:50 340 2 gusting 7 16.1
2018-Jan-20 14:40 347 3 gusting 7 16.1
2018-Jan-20 14:30 351 3 gusting 5 16.1
2018-Jan-20 14:20 337 3 gusting 6 15.6
2018-Jan-20 14:10 307 2 gusting 6 15.6
2018-Jan-20 13:50 316 4 gusting 11 15.0
2018-Jan-20 13:40 337 4 gusting 8 15.0
2018-Jan-20 13:30 274 2 gusting 6 15.0
2018-Jan-20 13:20 246 2 gusting 5 15.0
2018-Jan-20 13:10 045 3 gusting 9 14.4
2018-Jan-20 13:00 316 6 gusting 11 14.4
2018-Jan-20 12:50 332 3 gusting 8 14.4
2018-Jan-20 12:40 063 2 gusting 5 15.0
2018-Jan-20 12:30 076 1 gusting 3 15.6
2018-Jan-20 12:20 031 2 gusting 9 15.0
2018-Jan-20 12:10 045 4 gusting 8 15.0
2018-Jan-20 12:00 337 6 gusting 8 15.0
2018-Jan-20 11:50 353 4 gusting 7 14.4
2018-Jan-20 11:40 321 5 gusting 7 14.4
2018-Jan-20 11:30 333 3 gusting 6 13.9
2018-Jan-20 11:10 053 13.9
2018-Jan-20 11:00 170 1 gusting 2 13.3
2018-Jan-20 10:50 315 0 gusting 2 12.8
2018-Jan-20 10:40 315 0 gusting 4 12.8
2018-Jan-20 10:30 123 12.8
2018-Jan-20 10:20 122 12.2
2018-Jan-20 10:10 099 1 gusting 2 12.2
2018-Jan-20 10:00 177 12.2
2018-Jan-20 09:50 178 0 gusting 2 11.7
2018-Jan-20 09:40 176 0 gusting 2 11.7
2018-Jan-20 09:30 039 11.7
2018-Jan-20 09:20 039 1 gusting 2 11.1
2018-Jan-20 09:10 037 10.0
2018-Jan-20 09:00 037 1 gusting 4 10.0
2018-Jan-20 08:50 037 2 gusting 3 10.0
2018-Jan-20 08:40 037 0 gusting 4 10.0
2018-Jan-20 08:21 350 1 gusting 3 10.0
2018-Jan-20 08:10 350 0 gusting 2 9.4
2018-Jan-20 08:00 320 0 gusting 3 10.0
2018-Jan-20 07:50 315 9.4
2018-Jan-20 07:40 328 1 gusting 6 10.0
2018-Jan-20 07:30 326 0 gusting 4 10.0
2018-Jan-20 07:20 334 3 gusting 4 10.0
2018-Jan-20 07:10 013 3 gusting 4 10.0
2018-Jan-20 07:00 354 3 gusting 5 10.0
2018-Jan-20 06:50 033 0 gusting 1 9.4
2018-Jan-20 06:40 033 0 gusting 4 10.0
2018-Jan-20 06:30 017 1 gusting 4 10.0
2018-Jan-20 06:20 003 2 gusting 4 10.0
2018-Jan-20 06:10 001 1 gusting 6 10.0
2018-Jan-20 06:00 008 0 gusting 5 10.0
2018-Jan-20 05:50 341 2 gusting 6 10.0
2018-Jan-20 05:40 328 1 gusting 6 10.0
2018-Jan-20 05:30 336 4 gusting 8 10.0
2018-Jan-20 05:20 336 3 gusting 6 10.6
2018-Jan-20 05:10 008 1 gusting 5 10.6
2018-Jan-20 05:00 347 2 gusting 7 10.6
2018-Jan-20 04:50 119 1 gusting 6 10.6
2018-Jan-20 04:40 315 3 gusting 7 10.6
2018-Jan-20 04:30 001 4 gusting 5 10.6
2018-Jan-20 04:20 351 2 gusting 6 10.6
2018-Jan-20 04:10 336 3 gusting 5 10.6
2018-Jan-20 04:00 349 1 gusting 6 10.6
2018-Jan-20 03:50 011 3 gusting 5 10.6
2018-Jan-20 03:40 005 2 gusting 6 10.6
2018-Jan-20 03:30 299 0 gusting 4 10.6
2018-Jan-20 03:20 331 4 gusting 7 10.6
2018-Jan-20 03:10 288 5 gusting 8 10.6
2018-Jan-20 03:00 355 6 gusting 10 10.6
2018-Jan-20 02:50 346 6 gusting 11 10.6
2018-Jan-20 02:40 349 6 gusting 12 10.6
2018-Jan-20 02:30 326 6 gusting 10 10.6
2018-Jan-20 02:20 333 6 gusting 8 10.6
2018-Jan-20 02:10 311 6 gusting 8 11.1
2018-Jan-20 02:00 324 4 gusting 9 11.1
2018-Jan-20 01:50 349 4 gusting 10 11.1
2018-Jan-20 01:40 339 5 gusting 8 11.1
2018-Jan-20 01:30 001 4 gusting 12 11.1
2018-Jan-20 01:10 313 8 gusting 15 11.1
2018-Jan-20 01:00 353 8 gusting 14 11.1
2018-Jan-20 00:50 345 8 gusting 14 11.7
2018-Jan-20 00:40 328 8 gusting 13 11.7
2018-Jan-20 00:30 328 6 gusting 10 11.7
2018-Jan-20 00:20 339 6 gusting 13 11.7
2018-Jan-20 00:10 323 9 gusting 15 11.7
2018-Jan-20 00:00 352 8 gusting 13 11.7
2018-Jan-19 23:50 345 6 gusting 11 11.7
2018-Jan-19 23:40 358 6 gusting 12 11.7
2018-Jan-19 23:30 330 7 gusting 10 11.7
2018-Jan-19 23:20 353 6 gusting 12 11.7
2018-Jan-19 23:10 338 7 gusting 13 11.7
2018-Jan-19 23:00 330 9 gusting 13 11.7
2018-Jan-19 22:50 336 7 gusting 10 11.7
2018-Jan-19 22:40 311 6 gusting 11 11.7
2018-Jan-19 22:30 321 6 gusting 10 12.2
2018-Jan-19 22:20 286 4 gusting 9 12.2
2018-Jan-19 22:10 327 5 gusting 13 12.2
2018-Jan-19 22:00 316 8 gusting 17 12.2
2018-Jan-19 21:50 332 6 gusting 13 12.2
2018-Jan-19 21:40 093 6 gusting 14 12.2
2018-Jan-19 21:30 011 6 gusting 13 12.2
2018-Jan-19 21:20 009 6 gusting 13 12.2
2018-Jan-19 21:10 360 5 gusting 13 12.2
2018-Jan-19 21:00 047 6 gusting 13 12.2
2018-Jan-19 20:50 311 6 gusting 11 12.8
2018-Jan-19 20:40 008 3 gusting 7 12.8
2018-Jan-19 20:30 027 5 gusting 13 12.8
2018-Jan-19 20:20 022 6 gusting 13 12.8
2018-Jan-19 20:10 026 6 gusting 17 12.8
2018-Jan-19 20:00 057 7 gusting 13 12.8
2018-Jan-19 19:40 338 2 gusting 6 13.3
2018-Jan-19 19:30 344 4 gusting 14 13.3
2018-Jan-19 19:20 340 6 gusting 12 13.3
2018-Jan-19 19:10 005 4 gusting 10 13.9
2018-Jan-19 19:00 002 6 gusting 12 13.3
2018-Jan-19 18:50 350 4 gusting 11 13.9
2018-Jan-19 18:40 349 4 gusting 12 13.9
2018-Jan-19 18:30 109 3 gusting 11 13.9
2018-Jan-19 18:20 344 6 gusting 12 13.9
2018-Jan-19 18:10 340 8 gusting 14 13.9
2018-Jan-19 18:00 011 6 gusting 13 13.9
2018-Jan-19 17:50 068 2 gusting 13 14.4
2018-Jan-19 17:40 348 5 gusting 10 14.4
2018-Jan-19 17:30 002 4 gusting 13 15.0
2018-Jan-19 17:20 326 12 gusting 17 15.0
2018-Jan-19 17:10 339 9 gusting 15 15.0
2018-Jan-19 17:00 004 10 gusting 17 15.6
2018-Jan-19 16:50 001 6 gusting 15 15.6
2018-Jan-19 16:40 328 9 gusting 16 16.1
2018-Jan-19 16:30 319 5 gusting 12 16.1
2018-Jan-19 16:20 338 4 gusting 12 16.7
2018-Jan-19 16:10 330 6 gusting 12 16.7
2018-Jan-19 16:00 327 6 gusting 13 17.2
2018-Jan-19 15:50 346 6 gusting 12 17.2
2018-Jan-19 15:20 311 7 gusting 13 17.2
2018-Jan-19 15:10 348 6 gusting 12 17.2
2018-Jan-19 15:00 328 4 gusting 9 17.8
2018-Jan-19 14:50 318 3 gusting 8 17.2
2018-Jan-19 14:40 318 3 gusting 9 17.2
2018-Jan-19 14:30 303 4 gusting 11 16.7
2018-Jan-19 14:20 343 6 gusting 11 16.7
2018-Jan-19 14:10 311 6 gusting 10 17.2
2018-Jan-19 14:00 322 4 gusting 7 17.2
2018-Jan-19 13:50 332 4 gusting 7 17.2
2018-Jan-19 13:40 043 4 gusting 12 17.2
2018-Jan-19 13:30 043 3 gusting 9 16.7
2018-Jan-19 13:20 343 5 gusting 12 16.7
2018-Jan-19 13:10 151 5 gusting 14 16.1
2018-Jan-19 13:00 007 5 gusting 13 16.1
2018-Jan-19 12:50 353 5 gusting 13 16.1
2018-Jan-19 12:40 109 3 gusting 13 16.1
2018-Jan-19 12:30 062 7 gusting 13 15.6
2018-Jan-19 12:20 046 7 gusting 19 15.6
2018-Jan-19 12:10 015 10 gusting 17 15.6
2018-Jan-19 12:01 030 6 gusting 13 15.6
2018-Jan-19 11:50 350 7 gusting 19 15.6
2018-Jan-19 11:40 351 5 gusting 13 15.0
2018-Jan-19 11:30 308 5 gusting 12 15.0
2018-Jan-19 11:20 097 4 gusting 15 15.0
2018-Jan-19 11:10 010 6 gusting 16 15.0
2018-Jan-19 11:00 008 5 gusting 16 14.4
2018-Jan-19 10:50 071 5 gusting 16 14.4
2018-Jan-19 10:40 335 7 gusting 16 13.9
2018-Jan-19 10:30 030 7 gusting 17 13.9
2018-Jan-19 10:20 325 5 gusting 15 13.9
2018-Jan-19 10:10 001 8 gusting 17 13.3
2018-Jan-19 10:00 010 8 gusting 19 13.3
2018-Jan-19 09:50 025 8 gusting 18 13.3
2018-Jan-19 09:40 008 11 gusting 19 12.8
2018-Jan-19 09:30 349 11 gusting 26 12.8
2018-Jan-19 09:20 037 11 gusting 20 12.8
2018-Jan-19 09:10 004 10 gusting 21 12.8
2018-Jan-19 09:01 031 12 gusting 23 12.8
2018-Jan-19 08:50 029 6 gusting 16 12.2
2018-Jan-19 08:40 272 7 gusting 19 12.2
2018-Jan-19 08:30 004 8 gusting 20 12.2
2018-Jan-19 08:20 055 6 gusting 14 12.2
2018-Jan-19 08:10 041 12 gusting 20 12.2
2018-Jan-19 08:00 062 8 gusting 19 12.2
2018-Jan-19 07:50 339 8 gusting 20 12.2
2018-Jan-19 07:40 012 7 gusting 19 12.2
2018-Jan-19 07:30 022 9 gusting 17 12.2
2018-Jan-19 07:20 082 8 gusting 14 12.2
2018-Jan-19 07:10 358 8 gusting 19 12.2
2018-Jan-19 07:00 020 7 gusting 14 12.2
2018-Jan-19 06:50 097 6 gusting 13 12.2
2018-Jan-19 06:40 044 1 gusting 13 12.2
2018-Jan-19 06:30 049 2 gusting 16 12.2
2018-Jan-19 06:20 347 6 gusting 14 12.2
2018-Jan-19 06:10 068 3 gusting 12 12.2
2018-Jan-19 06:00 008 4 gusting 13 12.2
2018-Jan-19 05:50 292 2 gusting 10 12.2
2018-Jan-19 05:40 003 4 gusting 9 12.2
2018-Jan-19 05:30 003 2 gusting 10 12.2
2018-Jan-19 05:20 319 8 gusting 13 12.2
2018-Jan-19 05:10 344 6 gusting 13 12.2
2018-Jan-19 05:00 330 6 gusting 14 12.2
2018-Jan-19 04:50 359 9 gusting 14 12.2
2018-Jan-19 04:40 345 7 gusting 13 12.2
2018-Jan-19 04:30 324 6 gusting 11 12.2
2018-Jan-19 04:20 322 4 gusting 10 11.7
2018-Jan-19 04:10 329 5 gusting 13 11.7
2018-Jan-19 04:00 351 4 gusting 16 11.7
2018-Jan-19 03:50 038 4 gusting 13 11.7
2018-Jan-19 03:40 054 5 gusting 10 11.7
2018-Jan-19 03:30 022 3 gusting 9 11.7
2018-Jan-19 03:20 340 5 gusting 13 11.7
2018-Jan-19 03:10 074 4 gusting 10 11.7
2018-Jan-19 03:00 020 6 gusting 13 12.2
2018-Jan-19 02:50 355 284 gusting 284 12.2
2018-Jan-19 02:40 343 3 gusting 6 12.2
2018-Jan-19 02:30 285 4 gusting 11 11.7
2018-Jan-19 02:20 309 7 gusting 14 11.7
2018-Jan-19 02:10 315 9 gusting 17 11.7
2018-Jan-19 02:00 008 6 gusting 15 11.7
2018-Jan-19 01:50 343 10 gusting 18 11.7
2018-Jan-19 01:40 360 6 gusting 19 11.7
2018-Jan-19 01:30 331 6 gusting 19 11.7
2018-Jan-19 01:20 283 7 gusting 20 11.7
2018-Jan-19 01:10 351 7 gusting 19 11.7
2018-Jan-19 01:00 002 6 gusting 16 11.7
2018-Jan-19 00:31 019 7 gusting 18 11.7
2018-Jan-19 00:20 039 6 gusting 15 11.7
2018-Jan-19 00:10 018 10 gusting 19 11.1
2018-Jan-19 00:00 015 6 gusting 15 11.1
2018-Jan-18 23:50 014 6 gusting 19 11.1
2018-Jan-18 23:40 316 6 gusting 15 11.1
2018-Jan-18 23:30 342 12 gusting 23 11.1
2018-Jan-18 23:20 319 9 gusting 15 11.1
2018-Jan-18 23:10 041 3 gusting 13 11.1
2018-Jan-18 23:00 342 8 gusting 13 11.1